When you browse on this site, cookies collect data to enhance your experience and personalize the content and advertising you see.
Visit our Privacy Policy to learn more. By continuing to use the site, you agree to this use of cookies and data.

Météo par heure à Canillo

Ce jour, 29 Septembre, Mardi

Heure Température Précipitation Vent Pression Humidité
00:00 +5°C° 0 mm 1 m/s 618 mmHg 82%
01:00 +5°C° 0 mm 1 m/s 618 mmHg 81%
02:00 +5°C° 0 mm 1 m/s 618 mmHg 80%
03:00 +5°C° 0 mm 1 m/s 618 mmHg 78%
04:00 +5°C° 0 mm 1 m/s 618 mmHg 74%
05:00 +5°C° 0 mm 1 m/s 618 mmHg 70%
06:00 +5°C° 0 mm 1 m/s 618 mmHg 66%
07:00 +8°C° 0 mm 1 m/s 619 mmHg 63%
08:00 +9°C° 0 mm 0 m/s 621 mmHg 59%
09:00 +12°C° 0 mm 0 m/s 622 mmHg 56%
10:00 +14°C° 0 mm 1 m/s 622 mmHg 53%
11:00 +15°C° 0 mm 1 m/s 622 mmHg 50%
12:00 +16°C° 0 mm 1 m/s 623 mmHg 47%
13:00 +16°C° 0 mm 1 m/s 622 mmHg 50%
14:00 +16°C° 0 mm 1 m/s 622 mmHg 52%
15:00 +15°C° 0 mm 1 m/s 621 mmHg 55%
16:00 +13°C° 0 mm 1 m/s 620 mmHg 64%
17:00 +11°C° 0 mm 1 m/s 619 mmHg 73%
18:00 +8°C° 0 mm 1 m/s 618 mmHg 82%
19:00 +8°C° 0 mm 1 m/s 618 mmHg 81%
20:00 +8°C° 0 mm 1 m/s 618 mmHg 81%
21:00 +7°C° 0 mm 1 m/s 618 mmHg 80%
22:00 +7°C° 0 mm 1 m/s 618 mmHg 78%
23:00 +7°C° 0 mm 1 m/s 618 mmHg 77%

Demain, 30 Septembre, Mercredi

Heure Température Précipitation Vent Pression Humidité
00:00 +7°C° 0 mm 1 m/s 618 mmHg 75%
01:00 +7°C° 0 mm 1 m/s 617 mmHg 73%
02:00 +7°C° 0 mm 1 m/s 617 mmHg 71%
03:00 +7°C° 0 mm 1 m/s 617 mmHg 70%
04:00 +7°C° 0 mm 1 m/s 617 mmHg 70%
05:00 +7°C° 0 mm 1 m/s 617 mmHg 70%
06:00 +7°C° 0 mm 1 m/s 617 mmHg 70%
07:00 +10°C° 0 mm 1 m/s 618 mmHg 64%
08:00 +12°C° 0 mm 1 m/s 619 mmHg 58%
09:00 +15°C° 0 mm 1 m/s 620 mmHg 51%
10:00 +16°C° 0 mm 1 m/s 620 mmHg 48%
11:00 +18°C° 0 mm 1 m/s 620 mmHg 45%
12:00 +18°C° 0 mm 2 m/s 620 mmHg 41%
13:00 +17°C° 0 mm 2 m/s 620 mmHg 42%
14:00 +17°C° 0 mm 2 m/s 619 mmHg 43%
15:00 +17°C° 0 mm 2 m/s 619 mmHg 44%
16:00 +14°C° 0 mm 1 m/s 618 mmHg 55%
17:00 +11°C° 0 mm 1 m/s 616 mmHg 65%
18:00 +8°C° 0 mm 0 m/s 615 mmHg 76%
19:00 +7°C° 0 mm 0 m/s 615 mmHg 74%
20:00 +8°C° 0 mm 1 m/s 615 mmHg 72%
21:00 +8°C° 0 mm 1 m/s 615 mmHg 69%
22:00 +8°C° 0 mm 1 m/s 615 mmHg 69%
23:00 +7°C° 0 mm 1 m/s 615 mmHg 68%

Après-demain, 1 Octobre, Jeudi

Heure Température Précipitation Vent Pression Humidité
00:00 +7°C° 0 mm 1 m/s 614 mmHg 67%
01:00 +7°C° 0 mm 1 m/s 614 mmHg 66%
02:00 +7°C° 0 mm 2 m/s 613 mmHg 64%
03:00 +7°C° 0 mm 2 m/s 613 mmHg 63%
04:00 +8°C° 0 mm 1 m/s 613 mmHg 64%
05:00 +7°C° 0 mm 1 m/s 613 mmHg 65%
06:00 +7°C° 0 mm 1 m/s 612 mmHg 65%
07:00 +9°C° 0 mm 1 m/s 613 mmHg 65%
08:00 +10°C° 0 mm 1 m/s 614 mmHg 65%
09:00 +11°C° 0 mm 1 m/s 614 mmHg 64%
10:00 +11°C° 0.3 mm 1 m/s 614 mmHg 69%
11:00 +10°C° 0.3 mm 1 m/s 614 mmHg 74%
12:00 +9°C° 0.3 mm 2 m/s 614 mmHg 78%
13:00 +9°C° 0.1 mm 2 m/s 613 mmHg 78%
14:00 +9°C° 0.1 mm 2 m/s 613 mmHg 77%
15:00 +9°C° 0.1 mm 2 m/s 613 mmHg 77%
16:00 +8°C° 0.1 mm 2 m/s 612 mmHg 80%
17:00 +8°C° 0.1 mm 1 m/s 612 mmHg 84%
18:00 +7°C° 0.1 mm 1 m/s 611 mmHg 88%
19:00 +7°C° 0 mm 1 m/s 611 mmHg 88%
20:00 +7°C° 0 mm 1 m/s 611 mmHg 88%
21:00 +5°C° 0 mm 2 m/s 610 mmHg 88%
22:00 +5°C° 0 mm 2 m/s 609 mmHg 88%
23:00 +4°C° 0 mm 3 m/s 608 mmHg 87%

2 Octobre, Vendredi

Heure Température Précipitation Vent Pression Humidité
00:00 +4°C° 0 mm 3 m/s 607 mmHg 86%
01:00 +4°C° 0 mm 3 m/s 606 mmHg 88%
02:00 +4°C° 0 mm 3 m/s 606 mmHg 90%
03:00 +4°C° 0 mm 4 m/s 605 mmHg 91%
04:00 +5°C° 0.2 mm 3 m/s 604 mmHg 92%
05:00 +5°C° 0.2 mm 3 m/s 603 mmHg 93%
06:00 +5°C° 0.2 mm 3 m/s 603 mmHg 94%
07:00 +5°C° 1.6 mm 3 m/s 603 mmHg 94%
08:00 +5°C° 1.6 mm 3 m/s 602 mmHg 94%
09:00 +5°C° 1.6 mm 3 m/s 602 mmHg 95%
10:00 +4°C° 1.6 mm 3 m/s 602 mmHg 95%
11:00 +5°C° 1.6 mm 2 m/s 602 mmHg 96%
12:00 +4°C° 1.6 mm 2 m/s 602 mmHg 97%
13:00 +3°C° 1.9 mm 2 m/s 601 mmHg 96%
14:00 +2°C° 1.9 mm 2 m/s 601 mmHg 95%
15:00 +3°C° 1.9 mm 1 m/s 601 mmHg 94%
16:00 +2°C° 0.7 mm 1 m/s 601 mmHg 95%
17:00 +1°C° 0.7 mm 1 m/s 601 mmHg 96%
18:00 +1°C° 0.7 mm 1 m/s 601 mmHg 96%
19:00 -2°C° 0.1 mm 2 m/s 601 mmHg 96%
20:00 -2°C° 0.1 mm 2 m/s 601 mmHg 95%
21:00 -4°C° 0.1 mm 3 m/s 601 mmHg 94%
22:00 -2°C° 0 mm 3 m/s 601 mmHg 93%
23:00 -2°C° 0 mm 3 m/s 601 mmHg 93%

3 Octobre, Samedi

Heure Température Précipitation Vent Pression Humidité
00:00 -2°C° 0 mm 3 m/s 600 mmHg 92%
01:00 -3°C° 0 mm 4 m/s 600 mmHg 92%
02:00 -4°C° 0 mm 4 m/s 599 mmHg 92%
03:00 -4°C° 0 mm 4 m/s 599 mmHg 92%
04:00 -3°C° 0.3 mm 4 m/s 599 mmHg 93%
05:00 -3°C° 0.3 mm 4 m/s 600 mmHg 93%
06:00 -2°C° 0.3 mm 4 m/s 600 mmHg 93%
07:00 0°C° 0.4 mm 3 m/s 601 mmHg 92%
08:00 0°C° 0.4 mm 3 m/s 602 mmHg 91%
09:00 +1°C° 0.4 mm 3 m/s 602 mmHg 90%
10:00 +2°C° 0.1 mm 3 m/s 603 mmHg 88%
11:00 +3°C° 0.1 mm 3 m/s 603 mmHg 85%
12:00 +4°C° 0.1 mm 3 m/s 603 mmHg 82%
13:00 +3°C° 0.8 mm 3 m/s 603 mmHg 86%
14:00 +1°C° 0.8 mm 4 m/s 602 mmHg 91%
15:00 0°C° 0.8 mm 4 m/s 602 mmHg 95%
16:00 +1°C° 1.1 mm 3 m/s 602 mmHg 96%
17:00 +1°C° 1.1 mm 3 m/s 602 mmHg 97%
18:00 +2°C° 1.1 mm 2 m/s 603 mmHg 98%
19:00 +1°C° 0.2 mm 2 m/s 604 mmHg 97%
20:00 +1°C° 0.2 mm 2 m/s 604 mmHg 96%
21:00 -1°C° 0.2 mm 2 m/s 605 mmHg 95%
22:00 -1°C° 0.1 mm 2 m/s 605 mmHg 94%
23:00 -1°C° 0.1 mm 2 m/s 606 mmHg 93%

4 Octobre, Dimanche

Heure Température Précipitation Vent Pression Humidité
00:00 0°C° 0.1 mm 1 m/s 606 mmHg 92%
01:00 +1°C° 0.3 mm 1 m/s 607 mmHg 94%
02:00 +2°C° 0.3 mm 1 m/s 607 mmHg 95%
03:00 +2°C° 0.3 mm 1 m/s 608 mmHg 96%
04:00 +2°C° 0 mm 1 m/s 608 mmHg 96%
05:00 +2°C° 0 mm 1 m/s 609 mmHg 95%
06:00 +3°C° 0 mm 1 m/s 609 mmHg 95%
07:00 +4°C° 0 mm 1 m/s 610 mmHg 93%
08:00 +5°C° 0 mm 1 m/s 610 mmHg 91%
09:00 +6°C° 0 mm 1 m/s 611 mmHg 89%
10:00 +7°C° 0 mm 1 m/s 611 mmHg 85%
11:00 +8°C° 0 mm 1 m/s 611 mmHg 82%
12:00 +7°C° 0 mm 2 m/s 612 mmHg 79%
13:00 +7°C° 0.2 mm 2 m/s 612 mmHg 82%
14:00 +6°C° 0.2 mm 2 m/s 611 mmHg 85%
15:00 +5°C° 0.2 mm 2 m/s 611 mmHg 88%
16:00 +5°C° 0.3 mm 2 m/s 611 mmHg 90%
17:00 +5°C° 0.3 mm 1 m/s 610 mmHg 92%
18:00 +4°C° 0.3 mm 1 m/s 610 mmHg 95%
19:00 +3°C° 0.4 mm 1 m/s 611 mmHg 95%
20:00 +2°C° 0.4 mm 2 m/s 611 mmHg 95%
21:00 +1°C° 0.4 mm 2 m/s 611 mmHg 95%
22:00 +1°C° 0.4 mm 2 m/s 611 mmHg 95%
23:00 +1°C° 0.4 mm 2 m/s 611 mmHg 95%
Voir plus